User: anonymous   Login
Location: Fort Wayne
(41.1310°N, 85.1290°W)
Time: 08:31:35
(UTC-04:00)
Language:

OAO 2 Rocket - Orbit

View from above orbital plane
View from above orbital plane
View from above satellite
View from above satellite

Ground track
Ground track

The orbit data is extracted from the following two-line orbital elements,

1 03598U 68110B   14294.43046443  .00000830  00000-0  19651-3 0  7421
2 03598 034.9950 051.7654 0050350 283.2259 143.1894 14.53745796425247
Epoch (UTC): 21 October 2014 10:19:52
Eccentricity: 0.0050350
inclination: 34.9950°
perigee height: 678 km
apogee height: 749 km
right ascension of ascending node: 51.7654°
argument of perigee: 283.2259°
revolutions per day: 14.53745796
mean anomaly at epoch: 143.1894°
orbit number at epoch: 42524

The dashed part of the orbit path shows where the satellite is in the earth's shadow,  

DLR